EW3374 Gabicce Mare IT current weather conditions

sailwx.info

Wind from 163 at 4 knots gusting 8

Air temperature 31.7° C
Dewpoint 19.3° C

Last reported at 2020-Aug-13 17:04 UTC.
Time now 2020-Aug-13 17:28 UTC

Location: N 43°58' E 012°45'.
View on Google Maps.

See reports from other nearby stations

  
Tides and Currents Weather Stations Pressure Air Temp Water Temp Dewpoint Dewpoint Depression Visibility Wind Speed Wind Dir Waves Ship Positions
date/time (UTC)wind fromknots sea level pressurealtimeterstation pressurevisibilityair tempwater tempwave heightnotes
2020-Aug-13 17:04 163 4 gusting 8 31.7
2020-Aug-13 16:59 120 6 gusting 8 31.7
2020-Aug-13 16:53 110 3 gusting 10 31.7
2020-Aug-13 16:48 154 3 gusting 8 31.7
2020-Aug-13 16:43 121 1 gusting 6 31.7
2020-Aug-13 16:38 077 3 gusting 8 31.7
2020-Aug-13 16:33 101 3 gusting 8 31.1
2020-Aug-13 16:29 101 3 gusting 8 31.1
2020-Aug-13 16:23 093 5 gusting 8 30.6
2020-Aug-13 16:18 071 6 gusting 10 30.0
2020-Aug-13 16:14 076 6 gusting 12 30.0
2020-Aug-13 16:08 083 8 gusting 13 29.4
2020-Aug-13 16:03 074 9 gusting 13 29.4
2020-Aug-13 15:58 074 9 gusting 13 29.4
2020-Aug-13 15:54 074 8 gusting 15 29.4
2020-Aug-13 15:49 089 10 gusting 15 28.9
2020-Aug-13 15:44 059 11 gusting 15 28.9
2020-Aug-13 15:39 081 10 gusting 13 29.4
2020-Aug-13 15:34 094 10 gusting 13 29.4
2020-Aug-13 15:28 074 8 gusting 13 28.9
2020-Aug-13 15:23 074 11 gusting 13 29.4
2020-Aug-13 15:19 078 9 gusting 13 29.4
2020-Aug-13 15:14 088 8 gusting 13 28.9
2020-Aug-13 15:04 098 9 gusting 13 29.4
2020-Aug-13 14:59 084 9 gusting 13 29.4
2020-Aug-13 14:53 069 8 gusting 10 30.0
2020-Aug-13 14:49 084 6 gusting 12 30.0
2020-Aug-13 14:43 105 8 gusting 12 30.0
2020-Aug-13 14:38 084 8 gusting 12 30.0
2020-Aug-13 14:33 108 7 gusting 12 30.0
2020-Aug-13 14:28 077 9 gusting 12 30.0
2020-Aug-13 14:24 082 9 gusting 12 30.0
2020-Aug-13 14:19 082 8 gusting 11 30.0
2020-Aug-13 14:13 106 6 gusting 9 30.0
2020-Aug-13 14:08 067 6 gusting 9 30.0
2020-Aug-13 14:03 069 6 gusting 10 29.4
2020-Aug-13 13:58 084 7 gusting 10 29.4
2020-Aug-13 13:53 075 6 gusting 11 28.9
2020-Aug-13 13:49 061 7 gusting 11 28.9
2020-Aug-13 13:44 069 6 gusting 9 28.9
2020-Aug-13 13:39 071 6 gusting 9 28.9
2020-Aug-13 13:34 063 6 gusting 7 28.9
2020-Aug-13 13:29 072 4 gusting 7 28.9
2020-Aug-13 13:23 082 4 gusting 7 28.3
2020-Aug-13 13:18 083 5 gusting 7 28.3
2020-Aug-13 13:13 092 5 gusting 7 28.3
2020-Aug-13 13:08 084 4 gusting 6 28.3
2020-Aug-13 13:03 088 5 gusting 6 28.3
2020-Aug-13 12:58 031 3 gusting 7 28.3
2020-Aug-13 12:54 057 6 gusting 7 28.3
2020-Aug-13 12:48 071 4 gusting 7 28.3
2020-Aug-13 12:43 080 4 gusting 8 28.3
2020-Aug-13 12:38 038 4 gusting 8 28.3
2020-Aug-13 12:34 047 4 gusting 7 28.3
2020-Aug-13 12:28 047 3 gusting 7 28.3
2020-Aug-13 12:24 050 5 gusting 7 28.3
2020-Aug-13 12:19 046 5 gusting 7 28.3
2020-Aug-13 12:13 051 5 gusting 8 28.3
2020-Aug-13 12:09 045 5 gusting 8 28.3
2020-Aug-13 12:03 024 6 gusting 11 28.3
2020-Aug-13 11:59 020 6 gusting 11 27.8
2020-Aug-13 11:54 036 7 gusting 11 27.8
2020-Aug-13 11:48 039 8 gusting 11 28.3
2020-Aug-13 11:44 028 9 gusting 11 28.3
2020-Aug-13 11:38 026 8 gusting 11 28.3
2020-Aug-13 11:33 348 7 gusting 12 27.8
2020-Aug-13 11:28 027 8 gusting 12 27.8
2020-Aug-13 11:23 022 8 gusting 11 27.8
2020-Aug-13 11:19 021 8 gusting 11 28.3
2020-Aug-13 11:14 015 8 gusting 11 28.3
2020-Aug-13 11:08 026 8 gusting 10 27.8
2020-Aug-13 11:04 041 6 gusting 9 27.8
2020-Aug-13 10:58 028 7 gusting 9 27.8
2020-Aug-13 10:53 032 7 gusting 10 27.8
2020-Aug-13 10:49 011 8 gusting 11 27.8
2020-Aug-13 10:43 029 8 gusting 11 27.8
2020-Aug-13 10:39 030 7 gusting 9 27.8
2020-Aug-13 10:33 044 7 gusting 9 27.8
2020-Aug-13 10:28 022 7 gusting 9 28.3
2020-Aug-13 10:23 021 5 gusting 8 28.9
2020-Aug-13 10:13 046 5 gusting 7 28.9
2020-Aug-13 10:09 029 5 gusting 6 28.3
2020-Aug-13 10:04 051 5 gusting 7 28.3
2020-Aug-13 09:59 048 5 gusting 7 28.3
2020-Aug-13 09:54 018 6 gusting 6 28.3
2020-Aug-13 09:48 005 4 gusting 7 28.9
2020-Aug-13 09:43 018 6 gusting 7 28.9
2020-Aug-13 09:38 015 6 gusting 7 28.9
2020-Aug-13 09:33 013 5 gusting 7 29.4
2020-Aug-13 09:28 005 3 gusting 7 30.0
2020-Aug-13 09:24 028 4 gusting 6 30.0
2020-Aug-13 09:18 090 3 gusting 6 30.0
2020-Aug-13 09:13 293 3 gusting 6 30.0
2020-Aug-13 09:08 005 2 gusting 6 30.0
2020-Aug-13 09:04 355 2 gusting 6 29.4
2020-Aug-13 08:59 043 2 gusting 6 29.4
2020-Aug-13 08:54 313 3 gusting 7 28.3
2020-Aug-13 08:48 336 5 gusting 7 28.3
2020-Aug-13 08:44 323 3 gusting 7 28.9
2020-Aug-13 08:39 317 4 gusting 7 29.4
2020-Aug-13 08:34 051 1 gusting 5 29.4
2020-Aug-13 08:28 311 2 gusting 6 29.4
2020-Aug-13 08:23 010 1 gusting 6 28.9
2020-Aug-13 08:19 346 1 gusting 6 28.9
2020-Aug-13 08:14 360 1 gusting 6 28.3
2020-Aug-13 08:09 322 4 gusting 6 27.8
2020-Aug-13 08:04 344 3 gusting 6 27.8
2020-Aug-13 07:59 329 4 gusting 7 27.2
2020-Aug-13 07:54 322 6 gusting 7 27.2
2020-Aug-13 07:48 355 5 gusting 6 27.2
2020-Aug-13 07:43 321 4 gusting 6 27.2
2020-Aug-13 07:38 340 2 gusting 6 27.2
2020-Aug-13 07:33 315 3 gusting 6 27.2
2020-Aug-13 07:28 311 3 gusting 6 26.7
2020-Aug-13 07:23 306 5 gusting 7 26.7
2020-Aug-13 07:19 307 5 gusting 7 26.7
2020-Aug-13 07:14 327 3 gusting 7 26.7
2020-Aug-13 07:08 300 5 gusting 7 26.7
2020-Aug-13 07:04 282 5 gusting 6 26.7
2020-Aug-13 06:59 291 1 gusting 5 26.1
2020-Aug-13 06:53 269 2 gusting 5 26.1
2020-Aug-13 06:48 252 2 gusting 5 26.1
2020-Aug-13 06:43 246 1 gusting 6 25.6
2020-Aug-13 06:39 240 4 gusting 6 25.6
2020-Aug-13 06:33 242 2 gusting 5 25.6
2020-Aug-13 06:29 235 3 gusting 5 25.6
2020-Aug-13 06:24 252 3 gusting 4 25.0
2020-Aug-13 06:18 209 1 gusting 2 25.0
2020-Aug-13 06:13 208 1 gusting 3 25.0
2020-Aug-13 06:08 208 1 gusting 4 25.0
2020-Aug-13 06:03 209 2 gusting 4 25.0
2020-Aug-13 05:59 205 3 gusting 4 25.0
2020-Aug-13 05:53 195 0 gusting 4 25.0
2020-Aug-13 05:49 195 2 gusting 4 24.4
2020-Aug-13 05:44 206 1 gusting 3 24.4
2020-Aug-13 05:39 209 1 gusting 3 24.4
2020-Aug-13 05:34 211 0 gusting 4 23.9
2020-Aug-13 05:29 211 1 gusting 5 23.9
2020-Aug-13 05:23 200 4 gusting 5 23.9
2020-Aug-13 05:18 180 2 gusting 4 23.9
2020-Aug-13 05:14 173 2 gusting 4 23.9
2020-Aug-13 05:09 173 1 gusting 5 23.3
2020-Aug-13 05:03 168 3 gusting 5 23.3
2020-Aug-13 04:58 196 2 gusting 3 23.3
2020-Aug-13 04:54 196 1 gusting 4 23.3
2020-Aug-13 04:48 196 1 gusting 4 23.3
2020-Aug-13 04:43 196 3 gusting 5 23.3
2020-Aug-13 04:38 171 2 gusting 5 23.3
2020-Aug-13 04:33 167 2 gusting 5 23.3
2020-Aug-13 04:28 188 3 gusting 5 23.3
2020-Aug-13 04:23 207 4 gusting 5 23.3
2020-Aug-13 04:19 201 4 gusting 5 23.3
2020-Aug-13 04:14 200 3 gusting 5 23.3
2020-Aug-13 04:09 197 3 gusting 4 23.3
2020-Aug-13 04:04 186 1 gusting 3 23.3
2020-Aug-13 03:59 196 0 gusting 1 23.3
2020-Aug-13 03:53 196 0 gusting 1 23.3
2020-Aug-13 03:49 196 0 gusting 3 23.3
2020-Aug-13 03:43 196 1 gusting 5 23.3
2020-Aug-13 03:38 209 3 gusting 5 23.3
2020-Aug-13 03:33 216 5 gusting 5 23.3
2020-Aug-13 03:28 190 3 gusting 5 23.3
2020-Aug-13 03:23 172 1 gusting 6 23.3
2020-Aug-13 03:18 193 4 gusting 6 23.3
2020-Aug-13 03:13 200 4 gusting 6 23.3
2020-Aug-13 03:09 200 4 gusting 6 23.3
2020-Aug-13 03:03 203 4 gusting 6 23.3
2020-Aug-13 02:58 200 4 gusting 6 23.9
2020-Aug-13 02:53 194 5 gusting 6 23.9
2020-Aug-13 02:48 194 5 gusting 6 23.9
2020-Aug-13 02:44 207 6 gusting 6 23.9
2020-Aug-13 02:39 207 6 gusting 6 23.9
2020-Aug-13 02:33 158 2 gusting 5 23.9
2020-Aug-13 02:28 187 4 gusting 6 23.9
2020-Aug-13 02:23 180 4 gusting 7 23.9
2020-Aug-13 02:19 179 5 gusting 7 23.9
2020-Aug-13 02:14 190 6 gusting 7 23.9
2020-Aug-13 02:09 194 6 gusting 7 23.9
2020-Aug-13 02:04 184 5 gusting 6 23.9
2020-Aug-13 01:58 177 4 gusting 6 23.9
2020-Aug-13 01:53 182 4 gusting 6 23.9
2020-Aug-13 01:49 161 4 gusting 6 23.9
2020-Aug-13 01:43 161 5 gusting 6 23.9
2020-Aug-13 01:38 179 5 gusting 6 23.9
2020-Aug-13 01:33 167 5 gusting 6 23.9
2020-Aug-13 01:28 182 4 gusting 7 23.9
2020-Aug-13 01:23 173 5 gusting 7 23.9
2020-Aug-13 01:18 196 6 gusting 7 23.9
2020-Aug-13 01:13 202 6 gusting 7 24.4
2020-Aug-13 01:08 175 6 gusting 7 24.4
2020-Aug-13 01:03 184 4 gusting 6 23.9
2020-Aug-13 00:59 157 4 gusting 6 23.9
2020-Aug-13 00:53 169 3 gusting 6 24.4
2020-Aug-13 00:48 191 5 gusting 6 24.4
2020-Aug-13 00:44 179 5 gusting 6 24.4
2020-Aug-13 00:38 189 5 gusting 6 24.4
2020-Aug-13 00:34 191 4 gusting 6 24.4
2020-Aug-13 00:28 188 3 gusting 6 24.4
2020-Aug-13 00:23 205 5 gusting 6 24.4
2020-Aug-13 00:19 196 5 gusting 6 24.4
2020-Aug-13 00:13 188 4 gusting 5 24.4
2020-Aug-13 00:08 171 3 gusting 5 24.4
2020-Aug-13 00:03 178 3 gusting 5 24.4
2020-Aug-12 23:58 185 4 gusting 5 24.4
2020-Aug-12 23:53 183 3 gusting 5 24.4
2020-Aug-12 23:48 176 2 gusting 5 24.4
2020-Aug-12 23:43 167 2 gusting 5 24.4
2020-Aug-12 23:38 182 3 gusting 5 25.0
2020-Aug-12 23:34 171 3 gusting 5 25.0
2020-Aug-12 23:28 174 3 gusting 5 25.0
2020-Aug-12 23:23 175 3 gusting 6 25.0
2020-Aug-12 23:18 161 4 gusting 7 25.0
2020-Aug-12 23:13 157 5 gusting 7 25.0
2020-Aug-12 23:09 169 4 gusting 6 25.0
2020-Aug-12 23:03 171 4 gusting 6 25.0
2020-Aug-12 22:53 152 2 gusting 5 25.0
2020-Aug-12 22:48 199 3 gusting 4 25.0
2020-Aug-12 22:43 157 0 gusting 4 25.6
2020-Aug-12 22:38 157 0 gusting 5 25.6
2020-Aug-12 22:33 162 1 gusting 5 25.6
2020-Aug-12 22:28 135 1 gusting 4 25.6
2020-Aug-12 22:23 166 2 gusting 3 25.6
2020-Aug-12 22:18 161 0 gusting 3 25.6
2020-Aug-12 22:14 189 25.6
2020-Aug-12 22:09 190 0 gusting 3 26.1
2020-Aug-12 22:03 189 0 gusting 4 26.1
2020-Aug-12 21:59 190 1 gusting 5 26.1
2020-Aug-12 21:53 190 3 gusting 5 26.1
2020-Aug-12 21:49 157 1 gusting 5 26.1
2020-Aug-12 21:44 158 2 gusting 5 26.1
2020-Aug-12 21:38 146 1 gusting 4 26.1
2020-Aug-12 21:34 155 2 gusting 4 26.1
2020-Aug-12 21:28 156 2 gusting 5 26.1
2020-Aug-12 21:23 137 3 gusting 5 26.1
2020-Aug-12 21:19 136 3 gusting 4 26.1
2020-Aug-12 21:13 148 2 gusting 4 26.7
2020-Aug-12 21:08 153 1 gusting 3 26.7
2020-Aug-12 21:03 153 1 gusting 2 26.7
2020-Aug-12 20:59 151 0 gusting 3 26.7
2020-Aug-12 20:53 153 0 gusting 3 26.7
2020-Aug-12 20:48 181 0 gusting 5 26.7
2020-Aug-12 20:43 178 2 gusting 5 26.7
2020-Aug-12 20:39 193 3 gusting 6 26.7
2020-Aug-12 20:34 181 2 gusting 6 26.7
2020-Aug-12 20:28 154 4 gusting 5 26.7
2020-Aug-12 20:23 153 2 gusting 5 26.7
2020-Aug-12 20:18 153 1 gusting 4 26.7
2020-Aug-12 20:13 155 2 gusting 4 27.2
2020-Aug-12 20:08 156 2 gusting 4 27.2
2020-Aug-12 20:03 157 0 gusting 4 27.2
2020-Aug-12 19:58 158 2 gusting 4 27.2
2020-Aug-12 19:54 155 1 gusting 4 27.2
2020-Aug-12 19:49 161 1 gusting 3 27.2
2020-Aug-12 19:43 169 0 gusting 2 27.8
2020-Aug-12 19:38 169 1 gusting 2 27.8
2020-Aug-12 19:34 170 0 gusting 2 27.8
2020-Aug-12 19:29 165 1 gusting 3 27.8
2020-Aug-12 19:23 163 2 gusting 3 27.8
2020-Aug-12 19:19 163 0 gusting 3 27.8
2020-Aug-12 19:13 159 1 gusting 1 27.8
2020-Aug-12 19:08 159 0 gusting 4 27.8
2020-Aug-12 19:04 159 1 gusting 4 27.8
2020-Aug-12 18:58 184 2 gusting 4 27.8
2020-Aug-12 18:54 200 3 gusting 5 27.8
2020-Aug-12 18:49 202 3 gusting 5 28.3
2020-Aug-12 18:44 191 3 gusting 6 28.3
2020-Aug-12 18:38 161 3 gusting 6 28.3
2020-Aug-12 18:33 157 2 gusting 6 28.3
2020-Aug-12 18:29 165 3 gusting 6 28.3
2020-Aug-12 18:23 169 2 gusting 6 28.3
2020-Aug-12 18:19 154 3 gusting 6 28.3
2020-Aug-12 18:14 159 1 gusting 6 28.3
2020-Aug-12 18:09 126 2 gusting 6 28.3
2020-Aug-12 18:03 182 1 gusting 5 28.3
2020-Aug-12 17:59 113 1 gusting 5 28.3
2020-Aug-12 17:53 158 3 gusting 5 28.3
2020-Aug-12 17:48 135 1 gusting 5 28.3
2020-Aug-12 17:43 131 2 gusting 6 28.3
2020-Aug-12 17:38 115 3 gusting 6 28.3
2020-Aug-12 17:34 157 0 gusting 7 28.3
2020-Aug-12 17:28 117 2 gusting 7 28.3
2020-Aug-12 17:23 100 2 gusting 6 28.3
2020-Aug-12 17:18 161 1 gusting 6 28.3
2020-Aug-12 17:14 130 1 gusting 6 28.3
2020-Aug-12 17:09 136 2 gusting 6 28.3
2020-Aug-12 17:04 081 4 gusting 7 28.3
2020-Aug-12 16:58 140 3 gusting 7 28.3
2020-Aug-12 16:53 087 4 gusting 6 28.3
2020-Aug-12 16:48 063 4 gusting 6 27.8
2020-Aug-12 16:44 081 5 gusting 7 27.8
2020-Aug-12 16:39 086 4 gusting 10 27.8
2020-Aug-12 16:34 071 4 gusting 10 27.8
2020-Aug-12 16:29 070 6 gusting 10 27.8
2020-Aug-12 16:24 128 5 gusting 11 27.8
2020-Aug-12 16:19 072 7 gusting 11 27.8
2020-Aug-12 16:14 073 6 gusting 11 27.8
2020-Aug-12 16:08 071 6 gusting 12 27.8
2020-Aug-12 16:04 094 7 gusting 12 27.8
2020-Aug-12 15:59 095 7 gusting 12 27.8
2020-Aug-12 15:54 077 8 gusting 12 27.8
2020-Aug-12 15:49 075 6 gusting 12 27.8
2020-Aug-12 15:43 076 7 gusting 11 27.8
2020-Aug-12 15:38 088 7 gusting 11 28.3
2020-Aug-12 15:33 069 6 gusting 9 28.3
2020-Aug-12 15:28 069 5 gusting 9 28.9
2020-Aug-12 15:24 086 6 gusting 10 28.3
2020-Aug-12 15:18 088 6 gusting 10 28.9
2020-Aug-12 15:14 087 5 gusting 10 28.3
2020-Aug-12 15:09 071 6 gusting 10 28.3
2020-Aug-12 14:58 040 6 gusting 9 28.3
2020-Aug-12 14:53 055 6 gusting 9 28.3
2020-Aug-12 14:48 065 5 gusting 8 28.3
2020-Aug-12 14:43 076 6 gusting 8 28.3
2020-Aug-12 14:38 083 6 gusting 8 28.3
2020-Aug-12 14:33 078 5 gusting 8 28.3
2020-Aug-12 14:29 045 4 gusting 8 28.3
2020-Aug-12 14:24 048 3 gusting 6 28.3
2020-Aug-12 14:18 037 5 gusting 7 28.3
2020-Aug-12 14:14 031 5 gusting 7 28.3
2020-Aug-12 14:09 044 3 gusting 7 28.3
2020-Aug-12 14:03 039 5 gusting 7 28.3
2020-Aug-12 13:58 100 5 gusting 7 28.3
2020-Aug-12 13:54 051 4 gusting 7 28.3
2020-Aug-12 13:48 094 5 gusting 8 28.3
2020-Aug-12 13:43 050 6 gusting 8 28.3
2020-Aug-12 13:39 026 5 gusting 9 28.3
2020-Aug-12 13:34 039 5 gusting 9 28.3
2020-Aug-12 13:29 042 6 gusting 10 28.3
2020-Aug-12 13:23 047 6 gusting 12 27.8
2020-Aug-12 13:18 036 6 gusting 12 27.8
2020-Aug-12 13:13 026 8 gusting 11 27.8
2020-Aug-12 13:08 018 7 gusting 11 28.3
2020-Aug-12 12:59 005 6 gusting 11 28.3
2020-Aug-12 12:53 030 6 gusting 10 27.8
2020-Aug-12 12:48 037 8 gusting 11 27.8
2020-Aug-12 12:44 019 7 gusting 11 27.8
2020-Aug-12 12:38 024 8 gusting 10 27.8
2020-Aug-12 12:34 013 7 gusting 10 27.8
2020-Aug-12 12:28 011 7 gusting 10 27.8
2020-Aug-12 12:23 032 8 gusting 11 27.2
2020-Aug-12 12:18 028 7 gusting 11 27.8
2020-Aug-12 12:14 014 8 gusting 11 27.8
2020-Aug-12 12:09 016 7 gusting 11 27.8
2020-Aug-12 12:04 028 9 gusting 11 27.8
2020-Aug-12 11:59 019 7 gusting 10 27.8
2020-Aug-12 11:54 027 7 gusting 11 27.8
2020-Aug-12 11:48 036 7 gusting 11 27.2
2020-Aug-12 11:43 026 8 gusting 10 27.2
2020-Aug-12 11:33 005 7 gusting 11 27.8
2020-Aug-12 11:29 026 9 gusting 11 27.8
2020-Aug-12 11:24 034 6 gusting 11 27.8
2020-Aug-12 11:18 058 7 gusting 11 27.8
2020-Aug-12 11:13 017 7 gusting 11 27.2
2020-Aug-12 11:08 059 7 gusting 12 27.2
2020-Aug-12 11:03 036 9 gusting 12 27.2
2020-Aug-12 10:58 041 8 gusting 12 27.2
2020-Aug-12 10:53 025 9 gusting 12 27.2
2020-Aug-12 10:49 005 6 gusting 11 27.2
2020-Aug-12 10:44 005 7 gusting 10 27.2
2020-Aug-12 10:38 036 8 gusting 11 27.2
2020-Aug-12 10:34 011 8 gusting 11 27.2
2020-Aug-12 10:29 016 8 gusting 10 27.2
2020-Aug-12 10:24 046 6 gusting 10 27.2
2020-Aug-12 10:19 031 7 gusting 9 27.2
2020-Aug-12 10:08 021 6 gusting 9 27.8
2020-Aug-12 10:03 011 6 gusting 9 27.8
2020-Aug-12 09:58 016 6 gusting 9 27.8
2020-Aug-12 09:53 032 5 gusting 9 27.8
2020-Aug-12 09:48 042 6 gusting 8 27.8
2020-Aug-12 09:43 351 6 gusting 8 27.8
2020-Aug-12 09:39 020 6 gusting 8 27.8
2020-Aug-12 09:34 019 6 gusting 7 27.8
2020-Aug-12 09:28 031 5 gusting 6 27.8
2020-Aug-12 09:24 005 4 gusting 6 27.8
2020-Aug-12 09:18 026 3 gusting 6 27.8
2020-Aug-12 09:14 052 4 gusting 6 27.8
2020-Aug-12 09:08 038 3 gusting 6 27.8
2020-Aug-12 09:03 032 4 gusting 6 27.8
2020-Aug-12 08:58 036 4 gusting 5 27.2
2020-Aug-12 08:53 015 3 gusting 4 27.8
2020-Aug-12 08:48 026 3 gusting 5 27.8
2020-Aug-12 08:43 013 3 gusting 5 27.8
2020-Aug-12 08:38 039 3 gusting 6 27.8
2020-Aug-12 08:33 027 3 gusting 6 27.8
2020-Aug-12 08:29 017 3 gusting 6 27.8
2020-Aug-12 08:24 351 4 gusting 6 28.3
2020-Aug-12 08:19 038 3 gusting 6 28.3
2020-Aug-12 08:13 021 5 gusting 6 27.8
2020-Aug-12 08:08 025 1 gusting 5 27.8
2020-Aug-12 08:04 311 1 gusting 5 27.2
2020-Aug-12 07:58 319 2 gusting 5 27.2
2020-Aug-12 07:54 296 2 gusting 5 27.2
2020-Aug-12 07:48 340 2 gusting 4 27.2
2020-Aug-12 07:44 299 1 gusting 6 26.7
2020-Aug-12 07:39 303 3 gusting 6 26.1
2020-Aug-12 07:33 315 2 gusting 5 26.1
2020-Aug-12 07:29 290 3 gusting 5 26.1
2020-Aug-12 07:23 316 2 gusting 6 25.6
2020-Aug-12 07:18 311 4 gusting 6 26.1
2020-Aug-12 07:13 333 4 gusting 6 25.6
2020-Aug-12 07:08 302 3 gusting 5 26.1
2020-Aug-12 07:04 338 2 gusting 5 25.6
2020-Aug-12 06:59 311 4 gusting 6 25.6
2020-Aug-12 06:54 306 4 gusting 6 25.6
2020-Aug-12 06:48 324 3 gusting 6 25.6
2020-Aug-12 06:43 315 2 gusting 4 25.6
2020-Aug-12 06:39 291 1 gusting 5 25.6
2020-Aug-12 06:33 314 2 gusting 5 25.6
2020-Aug-12 06:29 315 2 gusting 4 25.0
2020-Aug-12 06:23 247 1 gusting 4 25.0
2020-Aug-12 06:19 223 2 gusting 4 24.4
2020-Aug-12 06:14 202 1 gusting 3 23.9
2020-Aug-12 06:08 201 1 gusting 4 23.9
2020-Aug-12 06:04 202 1 gusting 5 23.9
2020-Aug-12 05:58 201 4 gusting 5 23.3
2020-Aug-12 05:53 206 4 gusting 6 23.3
2020-Aug-12 05:48 196 3 gusting 6 23.3
2020-Aug-12 05:43 193 4 gusting 6 23.3
2020-Aug-12 05:38 188 4 gusting 5 23.3
2020-Aug-12 05:33 188 3 gusting 4 23.3
2020-Aug-12 05:28 188 2 gusting 4 22.8
2020-Aug-12 05:23 188 3 gusting 4 22.8
2020-Aug-12 05:18 188 3 gusting 4 22.8
2020-Aug-12 05:13 188 3 gusting 4 22.8
2020-Aug-12 05:04 188 3 gusting 5 22.2
2020-Aug-12 04:59 188 3 gusting 5 22.2
2020-Aug-12 04:53 194 4 gusting 5 22.2
2020-Aug-12 04:49 186 3 gusting 5 22.8
2020-Aug-12 04:44 186 2 gusting 4 22.8
2020-Aug-12 04:38 186 2 gusting 3 22.8
2020-Aug-12 04:29 186 2 gusting 4 22.8
2020-Aug-12 04:24 186 1 gusting 4 22.8
2020-Aug-12 04:19 186 3 gusting 4 22.8
2020-Aug-12 04:14 186 2 gusting 5 22.8
2020-Aug-12 04:09 179 4 gusting 5 22.8
2020-Aug-12 04:04 181 3 gusting 6 22.8
2020-Aug-12 03:58 182 3 gusting 6 22.8
2020-Aug-12 03:53 177 3 gusting 5 22.8
2020-Aug-12 03:48 174 2 gusting 5 23.3
2020-Aug-12 03:44 188 4 gusting 5 23.3
2020-Aug-12 03:39 183 4 gusting 5 23.3
2020-Aug-12 03:34 182 2 gusting 3 23.3
2020-Aug-12 03:29 182 0 gusting 4 23.3
2020-Aug-12 03:23 182 1 gusting 4 23.3
2020-Aug-12 03:18 182 3 gusting 4 23.3
2020-Aug-12 03:14 182 3 gusting 4 23.3
2020-Aug-12 03:08 180 3 gusting 4 23.3
2020-Aug-12 03:03 178 2 gusting 5 23.3
2020-Aug-12 02:58 183 3 gusting 5 23.3
2020-Aug-12 02:54 182 4 gusting 5 23.3
2020-Aug-12 02:48 179 3 gusting 4 23.3
2020-Aug-12 02:43 178 2 gusting 5 23.3
2020-Aug-12 02:39 178 2 gusting 6 23.3
2020-Aug-12 02:33 188 5 gusting 6 23.3
2020-Aug-12 02:28 202 2 gusting 5 23.9
2020-Aug-12 02:23 199 4 gusting 5 23.9
2020-Aug-12 02:13 197 4 gusting 5 23.9
2020-Aug-12 02:08 188 3 gusting 5 23.9
2020-Aug-12 02:04 186 1 gusting 4 23.9
2020-Aug-12 01:59 186 3 gusting 5 23.9
2020-Aug-12 01:53 187 2 gusting 5 23.9
2020-Aug-12 01:49 205 3 gusting 6 23.9
2020-Aug-12 01:39 198 2 gusting 4 23.9
2020-Aug-12 01:33 198 2 gusting 5 23.9
2020-Aug-12 01:28 198 4 gusting 5 23.9
2020-Aug-12 01:23 196 3 gusting 4 23.9
2020-Aug-12 01:18 196 2 gusting 5 23.9
2020-Aug-12 01:13 200 2 gusting 5 24.4
2020-Aug-12 01:08 205 3 gusting 6 24.4
2020-Aug-12 01:03 208 3 gusting 6 24.4
2020-Aug-12 00:58 200 3 gusting 6 24.4
2020-Aug-12 00:54 194 3 gusting 6 24.4
2020-Aug-12 00:48 201 4 gusting 6 24.4
2020-Aug-12 00:44 179 4 gusting 6 24.4
2020-Aug-12 00:39 186 5 gusting 6 25.0
2020-Aug-12 00:33 186 1 gusting 6 25.0
2020-Aug-12 00:29 190 5 gusting 6 25.0
2020-Aug-12 00:24 190 3 gusting 5 25.0
2020-Aug-12 00:19 192 1 gusting 5 25.0
2020-Aug-12 00:13 192 2 gusting 5 25.0
2020-Aug-12 00:08 171 3 gusting 4 25.6
2020-Aug-12 00:04 169 1 gusting 5 25.6
2020-Aug-11 23:58 195 4 gusting 5 25.6
2020-Aug-11 23:53 205 0 gusting 4 25.6
2020-Aug-11 23:49 207 3 gusting 4 25.6
2020-Aug-11 23:43 208 0 gusting 2 25.6
2020-Aug-11 23:38 208 1 gusting 2 25.6
2020-Aug-11 23:34 334 0 gusting 3 25.6
2020-Aug-11 23:24 338 1 gusting 3 25.6
2020-Aug-11 23:19 355 1 gusting 3 25.6
2020-Aug-11 23:14 172 0 gusting 3 25.6
2020-Aug-11 23:08 172 1 gusting 4 25.6
2020-Aug-11 23:03 172 0 gusting 5 25.6
2020-Aug-11 22:58 185 3 gusting 6 25.6
2020-Aug-11 22:53 196 4 gusting 6 25.6
2020-Aug-11 22:48 184 3 gusting 6 26.1
2020-Aug-11 22:43 186 5 gusting 6 26.1
2020-Aug-11 22:38 175 2 gusting 5 26.1
2020-Aug-11 22:33 187 3 gusting 4 26.1
2020-Aug-11 22:28 168 1 gusting 4 26.1
2020-Aug-11 22:23 162 2 gusting 4 26.7
2020-Aug-11 22:13 127 2 gusting 2 26.7
2020-Aug-11 21:59 128 1 gusting 4 27.2
2020-Aug-11 21:54 093 0 gusting 2 27.2
2020-Aug-11 21:48 093 0 gusting 4 27.8
2020-Aug-11 21:44 093 0 gusting 5 27.8
2020-Aug-11 21:39 099 1 gusting 5 27.8
2020-Aug-11 21:34 065 3 gusting 5 27.8
2020-Aug-11 21:28 072 2 gusting 6 27.8
2020-Aug-11 21:23 050 3 gusting 6 27.8
2020-Aug-11 21:18 066 1 gusting 6 27.8
2020-Aug-11 21:14 060 2 gusting 6 27.8
2020-Aug-11 21:08 076 2 gusting 4 27.8
2020-Aug-11 21:04 144 1 gusting 3 27.8
2020-Aug-11 20:53 179 1 gusting 1 27.8
2020-Aug-11 20:48 179 27.8
2020-Aug-11 20:43 179 1 gusting 2 27.8
2020-Aug-11 20:38 179 0 gusting 3 27.8
2020-Aug-11 20:33 179 2 gusting 5 27.8
2020-Aug-11 20:28 180 3 gusting 5 27.8
2020-Aug-11 20:23 170 2 gusting 4 27.8
2020-Aug-11 20:18 171 1 gusting 4 27.8
2020-Aug-11 20:13 187 2 gusting 5 27.8
2020-Aug-11 20:08 163 3 gusting 5 27.8
2020-Aug-11 20:03 173 0 gusting 2 27.8
2020-Aug-11 19:58 173 0 gusting 1 27.8
2020-Aug-11 19:53 173 27.8
2020-Aug-11 19:49 173 27.8
2020-Aug-11 19:43 173 0 gusting 5 27.8
2020-Aug-11 19:39 172 2 gusting 6 27.8
2020-Aug-11 19:34 178 3 gusting 6 27.8
2020-Aug-11 19:28 174 4 gusting 5 27.8
2020-Aug-11 19:23 172 2 gusting 4 28.3
2020-Aug-11 19:18 154 1 gusting 4 28.3
2020-Aug-11 19:14 137 2 gusting 4 28.3
2020-Aug-11 19:08 115 0 gusting 3 28.3
2020-Aug-11 19:03 115 28.3
2020-Aug-11 18:58 115 28.3
2020-Aug-11 18:53 115 0 gusting 3 28.3
2020-Aug-11 18:48 115 1 gusting 4 28.3
2020-Aug-11 18:44 115 2 gusting 4 28.3
2020-Aug-11 18:38 120 3 gusting 5 28.3
2020-Aug-11 18:34 130 2 gusting 5 28.3
2020-Aug-11 18:28 157 2 gusting 4 28.3
2020-Aug-11 18:24 169 2 gusting 6 28.9
2020-Aug-11 18:18 191 4 gusting 6 28.9
2020-Aug-11 18:13 145 2 gusting 6 28.9
2020-Aug-11 18:09 102 5 gusting 6 28.9
2020-Aug-11 18:03 109 3 gusting 6 28.9
2020-Aug-11 17:58 105 4 gusting 6 28.9
2020-Aug-11 17:53 088 3 gusting 5 28.9
2020-Aug-11 17:44 111 0 gusting 6 28.9
2020-Aug-11 17:38 115 2 gusting 6 28.9
2020-Aug-11 17:34 100 3 gusting 6 28.9
2020-Aug-11 17:28 119 3 gusting 9 28.9
2020-Aug-11 17:24 104 6 gusting 9 28.9
2020-Aug-11 17:18 101 4 gusting 7 28.9
2020-Aug-11 17:13 098 4 gusting 7 28.9
2020-Aug-11 17:08 108 5 gusting 7 28.9
2020-Aug-11 17:03 118 5 gusting 9 28.9